Regional Weather Roundup
Issued by NWS Goodland, KS

Home | Current Version | Previous Version | Graphics & Text | Print | Product List | Glossary On
Versions: 1 2 3 4 5 6 7 8 9 10 11 12 13 14 15 16 17 18 19 20 21 22 23 24 25 26 27 28 29 30 31 32 33 34 35 36 37 38 39 40 41 42 43 44 45 46 47 48 49 50
000
ASUS43 KGLD 200559
RWRGLD

GOODLAND FORECAST AREA HOURLY WEATHER ROUNDUP
NATIONAL WEATHER SERVICE GOODLAND KS
1200 AM MDT FRI OCT 20 2017

...OFFICIAL OBSERVATIONS...

CITY           SKY/WX    TMP DP  RH WIND       PRES   REMARKS
GOODLAND KS    PTCLDY    55  45  68 S10       29.89F
HILL CITY KS   FAIR      62  47  57 S13G23    29.94F
IMPERIAL NEB   PTCLDY    59  42  53 S9        29.86F
MCCOOK NEB     PTCLDY    63  44  50 S17       29.89F
AKRON CO       PTCLDY    51  42  71 S10       29.85F
BURLINGTON CO  PTCLDY    55  46  71 S18G28    29.89F
LIMON CO       PTCLDY    41  39  93 CALM      29.91F
$$

...UNOFFICIAL OBSERVATIONS...

CITY           SKY/WX    TMP DP  RH WIND       PRES   REMARKS
NORTON KS      CLEAR     61  39  44 S10G17    29.92S
SHARON SPRINGS   N/A     58  47  66 S14G22      N/A
TRENTON NEB      N/A     60  32  34 S10         N/A
YUMA CO        FAIR      50  43  76 S9        29.85F
$$




USA.gov is the U.S. government's official web portal to all federal, state and local government web resources and services.